Probability
26 29 55 81 77 29 3 0 0 0 0 0 3 3 3 10 6 10 13 16 39 48 55 71 77 68 71 68 68 65 61 65 68 68 61 61 65 68 65 65 65 61 55 52 55 52 48 55 52
32 55 81 81 42 3 0 0 0 0 0 0 0 3 3 6 10 6 6 23 35 42 52 58 68 68 68 68 68 65 68 71 68 65 65 61 58 58 55 52 52 55 55 55 55 52 42 58 52
29 68 74 52 13 0 0 0 0 0 0 0 0 0 3 6 6 10 16 19 32 42 48 61 71 68 65 65 61 61 58 58 61 61 61 55 58 52 52 52 48 48 48 55 52 52 48 48 48
68 77 52 19 0 0 0 0 0 0 0 0 0 0 0 6 10 10 19 13 29 39 39 55 71 65 58 58 65 58 55 55 58 61 55 52 48 52 45 45 39 39 48 52 52 45 45 45 48
68 61 35 3 0 0 0 0 0 0 0 0 0 3 3 3 13 13 13 16 19 32 42 52 71 65 65 61 61 58 58 52 45 52 52 52 52 45 52 55 42 42 39 32 39 39 35 45 35
55 45 16 0 3 0 0 0 0 0 0 0 0 3 10 6 10 10 16 19 19 32 42 55 68 68 71 65 61 52 55 52 48 48 48 52 42 45 48 52 45 42 42 35 42 32 35 29 29
42 29 0 0 0 0 0 0 0 0 0 0 0 6 6 6 13 16 19 26 26 35 48 58 58 61 65 61 55 52 45 48 48 48 48 48 45 45 45 45 48 39 35 32 35 39 35 32 39
13 3 0 0 0 0 0 0 0 0 0 0 3 3 3 10 10 19 23 26 26 29 39 42 55 52 48 52 61 58 58 48 45 58 52 58 48 52 52 55 55 45 32 39 45 45 32 29 35
3 6 0 0 0 3 0 0 0 6 3 3 3 6 6 6 6 13 19 23 26 23 29 29 45 45 48 42 58 65 65 55 55 52 55 55 68 58 52 39 61 45 35 42 52 55 52 48 45
6 3 0 0 0 0 0 0 0 0 3 6 6 6 10 6 10 13 13 16 19 26 29 29 48 48 42 42 58 58 48 65 71 68 65 71 74 71 55 61 77 74 61 58 65 61 58 55 32
0 0 0 0 0 0 0 0 0 0 0 10 6 13 13 13 10 10 16 16 29 29 26 35 42 52 42 55 61 61 52 74 65 61 74 81 74 61 65 65 61 65 68 61 58 61 39 29 32
0 0 0 0 0 0 0 0 0 0 6 10 10 13 13 13 6 10 19 23 32 32 29 35 42 58 68 68 58 58 48 58 55 61 71 68 74 71 74 68 71 71 68 74 68 65 61 55 42
0 0 0 0 0 0 0 0 0 6 10 10 13 13 13 10 6 10 19 32 42 39 35 35 58 65 68 74 77 55 68 55 55 65 68 65 74 74 65 65 68 65 74 71 65 65 61 65 52
0 0 0 0 0 0 0 0 3 6 10 13 16 13 6 3 3 10 23 39 45 42 45 42 48 55 65 71 77 65 68 71 58 61 65 71 71 71 68 71 71 68 71 68 65 61 61 61 61
0 0 0 0 0 0 0 3 6 10 10 13 13 10 6 6 0 10 23 39 45 48 48 52 45 52 58 61 65 65 65 58 61 68 68 71 68 71 71 65 61 61 68 68 68 61 58 52 55
0 0 0 0 0 0 0 6 10 10 10 13 19 10 3 13 10 23 26 39 52 55 65 61 39 52 65 68 61 55 58 58 58 61 61 68 71 65 68 71 65 68 65 65 65 65 55 48 52
0 3 0 0 0 0 0 6 13 13 10 16 13 10 10 16 13 16 23 32 48 58 61 65 65 61 61 65 68 61 61 61 58 55 52 55 58 58 65 71 71 68 61 61 52 52 58 55 52
0 0 0 3 0 3 0 3 13 10 10 10 6 13 23 23 26 19 29 32 48 55 65 58 61 61 65 65 71 68 71 61 55 55 52 52 55 55 65 58 68 65 68 65 61 65 58 55 55
0 0 0 0 0 0 0 3 3 10 10 10 10 16 23 26 26 26 26 35 42 48 58 61 55 71 68 68 68 71 61 61 52 48 45 48 42 48 61 48 65 61 61 61 55 52 48 42 48
0 0 0 0 0 0 0 0 6 10 6 10 13 23 23 19 26 35 39 39 39 52 55 61 68 68 71 68 68 74 58 58 52 48 48 48 42 55 42 55 52 52 55 58 61 58 55 52 42
0 0 0 0 0 0 0 3 10 3 10 13 19 19 23 19 26 39 35 32 32 42 48 52 61 65 68 71 68 61 68 65 48 48 45 42 48 48 52 52 48 52 52 48 52 55 58 48 48
0 0 0 0 0 3 0 0 13 16 13 16 19 23 19 23 19 39 29 35 35 42 48 58 68 68 68 61 61 58 52 52 55 55 52 48 48 48 45 45 45 55 45 58 45 48 55 55 48
0 0 0 0 0 0 0 0 10 19 16 19 26 19 26 16 16 29 29 32 35 39 48 61 65 65 68 71 61 61 55 55 52 58 55 55 52 48 39 42 52 55 55 48 45 61 55 45 42
0 0 0 0 0 3 0 0 3 13 16 26 29 29 26 16 19 26 29 35 39 39 52 52 61 68 61 61 58 61 61 58 55 61 55 52 52 48 39 39 48 48 48 52 52 55 48 45 48
0 0 0 0 0 0 0 0 3 6 6 10 23 29 23 23 16 26 26 32 39 39 42 42 58 65 65 55 58 58 61 61 58 48 45 42 39 39 39 29 35 35 42 45 48 48 52 45 45
0 0 3 0 0 0 0 0 3 6 13 19 19 23 19 16 26 32 39 39 42 39 42 48 58 58 58 52 55 61 55 48 45 48 52 42 35 32 32 29 29 32 39 29 42 45 42 39 39
0 0 0 0 0 0 0 3 3 6 13 26 29 19 23 16 19 29 26 29 32 42 45 45 55 61 61 45 55 52 48 45 45 45 45 42 42 35 29 26 32 32 35 29 35 45 42 39 39
0 0 0 0 6 0 0 0 6 13 13 23 26 16 23 16 19 23 26 29 32 35 48 48 58 61 52 52 52 45 45 48 48 42 39 39 35 32 32 32 29 29 29 29 32 35 32 35 32
0 0 0 0 0 3 0 0 3 13 19 16 19 19 23 23 23 23 23 26 23 29 35 45 52 55 48 48 52 52 55 42 45 42 39 35 35 29 29 29 29 26 26 29 32 29 32 26 26
0 0 0 0 0 0 0 0 0 10 16 23 23 26 23 32 26 19 19 19 23 19 26 32 39 52 48 48 52 52 55 52 48 35 35 32 35 35 29 29 29 26 26 19 23 23 19 29 26
Height
5896 5895 5895 5893 5892 5893 5892 5893 5892 5890 5889 5889 5888 5887 5886 5886 5886 5887 5884 5882 5882 5882 5881 5881 5880 5880 5879 5879 5879 5879 5879 5879 5878 5878 5878 5878 5879 5879 5879 5879 5879 5880 5880 5881 5881 5882 5882 5883 5884
5899 5898 5897 5895 5895 5895 5895 5894 5893 5892 5891 5890 5889 5888 5888 5887 5887 5886 5884 5884 5884 5883 5882 5882 5881 5881 5880 5880 5879 5879 5879 5879 5879 5878 5878 5878 5878 5878 5879 5879 5879 5880 5880 5881 5881 5882 5882 5883 5884
5900 5899 5899 5899 5898 5897 5897 5896 5895 5894 5893 5891 5891 5890 5889 5889 5888 5887 5886 5885 5885 5884 5883 5883 5882 5881 5881 5880 5880 5879 5879 5879 5879 5879 5878 5878 5878 5878 5878 5878 5879 5879 5880 5880 5881 5882 5882 5883 5884
5902 5901 5901 5902 5901 5900 5899 5898 5897 5896 5894 5893 5892 5892 5890 5890 5889 5888 5887 5887 5886 5885 5884 5884 5883 5882 5881 5881 5880 5880 5879 5879 5879 5879 5879 5878 5878 5878 5878 5878 5878 5879 5879 5880 5881 5882 5882 5883 5884
5903 5902 5903 5904 5904 5902 5901 5900 5899 5897 5896 5895 5894 5893 5892 5891 5890 5890 5889 5888 5887 5886 5885 5884 5883 5882 5882 5881 5880 5880 5880 5879 5879 5878 5878 5878 5878 5878 5878 5878 5878 5879 5879 5879 5880 5881 5882 5882 5883
5904 5905 5907 5907 5905 5905 5903 5902 5901 5899 5898 5897 5896 5895 5893 5893 5892 5891 5890 5889 5888 5887 5886 5885 5884 5883 5883 5882 5881 5880 5880 5879 5879 5878 5878 5878 5877 5877 5878 5878 5878 5879 5879 5879 5880 5881 5881 5882 5883
5907 5909 5910 5909 5907 5906 5905 5904 5902 5901 5900 5899 5897 5896 5894 5894 5893 5892 5891 5890 5890 5889 5888 5886 5885 5884 5883 5882 5882 5881 5880 5880 5879 5879 5878 5878 5878 5878 5878 5878 5878 5878 5879 5879 5879 5880 5881 5882 5882
5911 5913 5913 5911 5909 5908 5907 5905 5904 5902 5902 5901 5899 5898 5896 5895 5894 5893 5892 5892 5891 5890 5889 5887 5886 5885 5884 5883 5883 5882 5881 5880 5879 5879 5878 5878 5878 5878 5878 5878 5878 5878 5878 5879 5879 5879 5880 5881 5882
5913 5915 5914 5913 5911 5910 5909 5907 5906 5904 5903 5902 5900 5899 5898 5897 5896 5894 5894 5893 5892 5891 5890 5889 5887 5886 5885 5884 5883 5882 5881 5880 5879 5879 5878 5878 5878 5878 5878 5878 5878 5878 5878 5878 5878 5879 5879 5880 5881
5917 5916 5916 5915 5913 5912 5910 5909 5907 5906 5904 5903 5901 5900 5899 5898 5897 5896 5895 5894 5893 5892 5891 5890 5888 5887 5885 5884 5883 5883 5882 5881 5880 5879 5878 5878 5878 5878 5878 5877 5877 5877 5877 5878 5878 5878 5878 5878 5879
5919 5918 5917 5916 5914 5913 5912 5910 5909 5907 5906 5904 5902 5901 5900 5899 5898 5897 5896 5894 5893 5892 5891 5890 5889 5888 5886 5885 5884 5883 5882 5881 5880 5879 5878 5878 5877 5877 5878 5877 5877 5877 5877 5877 5877 5877 5877 5877 5878
5920 5919 5918 5917 5916 5915 5913 5912 5910 5909 5907 5905 5904 5902 5901 5900 5899 5898 5896 5895 5894 5893 5892 5891 5889 5888 5887 5885 5884 5883 5882 5881 5880 5879 5878 5877 5877 5877 5877 5877 5877 5876 5877 5877 5877 5877 5877 5877 5877
5921 5920 5919 5918 5917 5916 5914 5913 5911 5909 5908 5907 5905 5904 5902 5901 5900 5899 5897 5895 5895 5894 5893 5891 5890 5888 5887 5886 5884 5883 5882 5881 5880 5879 5878 5877 5877 5877 5877 5876 5876 5876 5876 5876 5876 5876 5877 5877 5876
5920 5920 5920 5919 5918 5916 5915 5914 5912 5910 5908 5908 5906 5905 5903 5902 5900 5899 5898 5897 5896 5895 5893 5892 5890 5889 5887 5886 5885 5883 5882 5881 5879 5879 5878 5877 5876 5876 5876 5875 5875 5874 5875 5875 5875 5875 5875 5875 5875
5921 5920 5920 5920 5919 5918 5916 5915 5913 5911 5910 5908 5907 5906 5904 5903 5901 5900 5899 5898 5896 5895 5894 5892 5890 5889 5887 5886 5884 5883 5881 5880 5879 5878 5877 5876 5875 5875 5875 5874 5873 5873 5873 5873 5873 5873 5873 5874 5874
5921 5921 5921 5921 5920 5919 5918 5916 5914 5912 5910 5908 5907 5906 5905 5904 5902 5901 5900 5898 5897 5895 5894 5892 5890 5889 5887 5886 5884 5882 5881 5879 5878 5877 5876 5875 5874 5873 5873 5872 5872 5871 5871 5871 5871 5872 5871 5872 5872
5922 5923 5923 5923 5921 5919 5918 5916 5914 5912 5911 5909 5908 5906 5905 5904 5903 5901 5900 5898 5897 5895 5894 5892 5890 5888 5887 5885 5883 5882 5880 5879 5877 5876 5875 5874 5873 5872 5871 5870 5870 5870 5870 5870 5869 5870 5870 5870 5870
5924 5925 5925 5924 5922 5920 5919 5917 5915 5914 5912 5910 5908 5907 5906 5904 5903 5901 5900 5898 5897 5895 5893 5892 5890 5888 5886 5884 5883 5881 5880 5878 5877 5875 5874 5872 5871 5871 5870 5869 5868 5868 5868 5867 5867 5867 5867 5867 5867
5925 5924 5924 5924 5922 5920 5918 5917 5915 5915 5913 5911 5909 5907 5906 5904 5903 5901 5900 5898 5896 5895 5893 5891 5889 5887 5885 5883 5882 5880 5879 5877 5875 5874 5873 5871 5870 5869 5868 5867 5866 5866 5866 5865 5865 5865 5865 5865 5864
5923 5924 5924 5923 5922 5920 5918 5916 5915 5914 5913 5911 5909 5907 5906 5904 5902 5901 5899 5897 5896 5894 5892 5889 5887 5885 5883 5882 5881 5879 5878 5876 5874 5872 5871 5870 5868 5867 5866 5865 5864 5864 5863 5863 5863 5862 5862 5862 5861
5924 5924 5922 5922 5921 5919 5918 5917 5916 5913 5912 5911 5909 5907 5905 5903 5902 5900 5898 5897 5895 5893 5891 5889 5886 5884 5882 5881 5879 5878 5876 5874 5873 5871 5869 5868 5866 5865 5864 5863 5862 5861 5861 5860 5860 5860 5859 5859 5858
5922 5922 5921 5920 5920 5919 5919 5916 5914 5911 5910 5909 5908 5906 5905 5903 5901 5899 5898 5896 5894 5892 5890 5888 5885 5883 5881 5880 5878 5877 5875 5873 5871 5869 5867 5865 5864 5862 5861 5860 5859 5858 5858 5857 5857 5857 5856 5856 5855
5920 5920 5919 5919 5918 5917 5916 5914 5912 5910 5908 5908 5906 5905 5904 5902 5900 5899 5897 5895 5893 5891 5889 5887 5885 5883 5881 5879 5877 5875 5873 5871 5869 5867 5865 5863 5862 5860 5859 5857 5856 5855 5854 5854 5853 5853 5853 5852 5852
5919 5919 5918 5917 5916 5915 5915 5914 5912 5911 5908 5906 5905 5904 5903 5901 5899 5897 5895 5894 5892 5890 5888 5886 5884 5882 5880 5878 5875 5873 5871 5869 5867 5865 5864 5862 5860 5858 5856 5855 5854 5852 5851 5851 5850 5850 5849 5849 5848
5918 5918 5918 5917 5915 5914 5914 5913 5911 5909 5907 5905 5904 5903 5901 5900 5898 5896 5894 5892 5891 5889 5886 5884 5882 5880 5878 5876 5874 5872 5870 5868 5866 5864 5862 5860 5858 5856 5854 5852 5851 5850 5849 5847 5846 5846 5845 5844 5843
5915 5916 5917 5916 5914 5912 5912 5910 5908 5907 5907 5905 5903 5901 5899 5898 5896 5895 5893 5891 5889 5887 5885 5883 5881 5879 5877 5875 5872 5870 5868 5866 5864 5862 5860 5857 5855 5853 5851 5849 5848 5847 5845 5844 5843 5842 5841 5840 5839
5912 5913 5914 5914 5912 5911 5910 5908 5906 5906 5904 5903 5901 5899 5897 5895 5894 5892 5890 5889 5887 5885 5883 5881 5879 5877 5875 5873 5870 5868 5866 5864 5862 5859 5857 5855 5853 5851 5848 5846 5845 5844 5842 5841 5839 5838 5836 5835 5834
5910 5911 5911 5911 5910 5909 5909 5907 5904 5902 5901 5900 5898 5897 5894 5893 5891 5890 5889 5887 5885 5883 5881 5879 5877 5875 5873 5870 5868 5866 5863 5861 5859 5857 5855 5852 5850 5848 5846 5844 5842 5840 5839 5837 5835 5834 5832 5831 5829
5907 5908 5908 5909 5909 5909 5908 5906 5901 5901 5900 5898 5896 5894 5893 5891 5889 5887 5886 5883 5882 5880 5879 5876 5874 5872 5870 5867 5865 5863 5861 5859 5856 5854 5852 5850 5847 5845 5843 5841 5839 5837 5835 5833 5831 5829 5827 5826 5825
5903 5903 5905 5906 5906 5905 5905 5904 5898 5899 5897 5895 5893 5892 5890 5888 5886 5884 5882 5880 5879 5877 5875 5873 5871 5869 5867 5864 5862 5860 5858 5856 5853 5851 5849 5847 5844 5842 5839 5837 5835 5833 5831 5829 5827 5825 5823 5821 5820
Wind_Speed
14 14 14 14 15 12 11 9 7 7 6 5 5 4 4 4 5 5 5 5 5 5 5 5 5 4 4 4 4 3 2 1 1 1 1 2 2 2 3 3 3 4 4 4 3 2 2 3 4
14 13 15 16 14 11 10 9 8 8 7 6 6 6 5 5 5 5 5 5 5 5 5 5 5 5 5 4 4 3 3 2 1 1 1 2 3 3 3 3 3 4 4 3 4 3 3 3 3
14 14 15 15 11 10 9 9 9 8 7 7 7 6 6 6 6 6 5 5 5 5 6 6 6 5 5 5 4 3 3 2 1 1 1 1 2 3 3 3 3 3 4 4 4 3 3 4 4
14 16 16 13 10 10 8 8 9 8 8 7 7 6 6 6 6 6 6 6 5 5 6 6 6 6 5 4 4 4 3 3 2 1 1 2 2 2 2 2 3 3 4 4 4 4 4 4 4
14 17 14 11 9 9 8 8 8 9 8 7 7 7 7 7 7 7 7 7 6 6 6 6 6 6 5 4 3 3 3 3 3 2 2 2 3 2 2 2 3 4 4 5 5 5 6 6 5
15 15 11 9 9 8 8 8 8 9 9 8 8 8 7 7 7 7 7 7 7 7 7 7 7 6 5 4 4 4 4 3 3 3 3 3 2 2 2 2 2 3 4 5 5 6 6 6 4
15 13 9 7 8 8 9 9 8 9 9 9 8 8 8 8 7 7 7 7 7 7 7 6 7 6 5 5 4 4 4 4 3 3 3 3 2 2 2 2 2 3 2 3 4 5 5 5 4
12 11 7 8 8 9 9 9 9 9 9 9 9 8 8 8 7 7 7 7 7 7 7 7 7 7 7 5 5 5 5 5 5 4 3 3 2 2 2 3 3 2 2 2 3 4 5 5 5
9 9 6 6 7 8 8 9 9 10 10 10 9 9 8 7 7 7 7 7 6 7 7 8 8 8 7 6 6 6 6 6 5 4 3 3 2 2 2 3 3 3 3 3 3 4 5 5 6
7 6 5 6 6 7 7 8 9 10 10 10 9 9 9 8 7 7 7 7 7 7 7 8 8 9 8 7 7 7 7 6 5 4 4 3 3 3 3 3 3 3 3 4 4 4 4 6 6
5 5 6 6 7 7 8 8 9 9 10 10 10 10 10 9 8 8 8 7 7 7 8 8 9 9 9 9 8 8 8 7 7 6 4 4 4 3 4 4 4 4 4 4 5 6 5 6 6
4 6 6 7 7 8 9 8 9 9 10 10 11 11 11 10 9 8 8 7 8 8 8 8 9 10 10 10 9 9 8 7 7 6 5 5 5 4 5 4 5 5 5 4 5 5 5 5 5
4 4 4 6 8 8 8 9 9 9 9 10 10 11 12 11 9 9 9 9 9 9 9 10 10 10 10 10 11 11 9 8 7 7 6 6 6 6 6 6 6 6 7 6 6 6 6 6 7
3 3 5 8 8 9 8 9 9 9 8 9 10 11 11 11 11 10 9 9 10 10 10 10 10 11 11 11 10 10 10 9 8 7 7 7 7 7 7 7 7 7 7 8 8 7 8 7 7
4 5 6 8 8 9 9 10 10 10 9 9 10 10 10 11 11 11 11 11 10 10 11 11 11 11 11 11 11 11 10 10 9 9 8 8 8 8 9 8 8 8 8 9 9 9 9 9 8
6 6 8 8 9 10 10 10 10 11 10 10 9 9 10 11 11 11 11 11 11 11 11 12 12 12 12 12 12 12 11 11 11 10 10 9 9 9 9 9 9 10 9 9 9 10 10 9 9
5 6 6 7 9 9 10 10 11 11 11 11 10 10 10 10 11 11 12 11 11 11 12 12 13 13 13 12 12 12 12 12 11 11 10 10 10 10 10 9 9 10 10 9 10 10 10 10 10
3 4 5 8 9 8 8 9 11 11 11 12 11 11 11 11 12 12 12 12 12 12 12 13 13 13 13 13 12 12 12 12 12 12 11 11 11 10 11 10 10 10 10 10 10 10 10 10 10
3 3 5 7 8 8 8 7 9 11 11 12 12 12 12 12 12 12 12 12 12 12 13 14 14 13 13 12 12 12 12 13 13 13 12 12 12 12 11 11 10 10 11 11 11 11 11 11 11
4 6 7 8 7 7 9 9 10 12 12 13 13 13 13 13 12 13 13 13 13 13 14 14 14 14 13 13 12 12 13 13 13 13 13 13 13 13 12 12 12 11 11 12 12 12 12 12 13
6 8 8 7 7 8 9 11 12 13 13 13 13 13 13 13 13 13 14 13 14 14 14 15 14 14 13 12 13 13 13 13 13 14 13 13 14 13 13 13 13 12 12 12 13 13 13 13 13
7 9 8 7 7 8 10 13 13 13 12 13 14 14 14 14 14 14 13 14 15 15 15 15 14 14 13 13 13 13 13 13 13 14 14 14 14 13 13 13 13 13 13 13 13 13 14 14 14
9 8 7 6 8 10 10 12 12 13 13 14 15 15 15 14 13 13 14 14 15 15 15 15 13 14 14 13 13 13 13 14 14 14 14 14 13 13 14 13 13 13 13 14 14 15 15 15 15
9 8 8 9 11 11 9 8 11 14 16 16 16 15 16 15 14 14 14 15 15 15 16 16 15 14 14 14 15 15 14 15 15 15 14 14 14 14 14 14 14 14 14 14 15 16 16 17 17
8 8 9 10 11 10 8 9 12 14 16 17 17 16 16 15 15 15 15 15 15 16 16 16 16 16 15 16 16 16 15 15 15 15 15 15 15 15 15 15 15 16 16 16 15 16 17 18 18
10 8 9 11 13 10 7 10 14 14 16 17 17 16 16 16 16 15 15 15 16 16 16 16 17 17 17 16 16 16 16 16 16 16 16 16 16 16 16 15 15 16 17 17 17 16 18 18 18
11 10 9 11 11 10 8 13 15 14 15 17 18 18 17 17 17 16 16 15 16 16 17 17 17 17 18 17 17 18 17 17 17 17 17 17 18 18 17 16 16 16 17 17 17 17 17 18 19
11 10 9 9 10 10 10 13 15 15 15 16 19 19 18 18 17 16 16 16 17 17 17 18 18 18 18 18 18 18 18 18 18 18 18 18 18 18 18 17 17 17 17 18 18 18 18 18 18
14 12 11 11 10 10 13 15 15 16 17 19 19 20 20 19 18 17 17 17 17 17 18 19 19 19 19 18 18 18 18 19 19 19 19 20 20 19 19 18 18 18 18 19 19 19 19 19 20
14 13 11 11 13 12 13 17 18 18 19 19 19 20 20 20 19 19 18 18 18 18 18 19 19 19 19 19 18 19 20 20 20 20 19 19 20 20 20 20 19 19 19 20 20 20 20 20 21
Wind_Direction
74 72 73 66 59 54 49 39 31 39 43 40 34 30 41 40 41 38 37 40 43 41 41 37 34 30 25 23 19 16 13 340 304 266 230 222 221 211 205 205 202 201 193 192 185 185 201 201 189
75 72 67 59 55 49 49 36 31 38 39 35 32 36 39 45 47 50 41 42 43 40 41 35 32 27 27 22 11 1 349 344 326 291 252 243 241 248 243 221 215 202 199 197 197 204 208 193 193
75 71 64 55 43 39 41 42 34 36 37 39 39 42 45 47 47 47 44 42 42 36 35 36 27 24 25 20 14 3 352 345 327 294 267 247 255 258 248 234 218 207 199 199 202 205 205 197 203
80 71 64 54 34 32 28 38 36 32 36 39 48 45 45 44 48 50 45 42 38 34 30 27 21 20 18 14 11 1 351 346 337 304 268 268 284 295 260 243 219 214 208 211 208 208 206 203 204
78 70 57 46 31 31 30 29 37 37 38 39 45 41 46 45 48 47 46 43 40 37 30 28 25 21 17 13 7 357 352 346 346 332 297 294 287 272 270 272 231 216 217 224 223 215 213 216 213
73 64 48 39 31 30 36 32 39 35 37 42 43 48 48 48 48 47 42 37 36 32 31 26 27 20 14 11 7 4 355 348 344 342 331 327 326 268 256 280 246 219 220 226 229 228 228 226 226
75 64 43 31 23 29 32 32 31 31 32 38 42 46 48 47 44 43 39 34 31 30 25 22 24 19 9 9 7 360 357 358 346 337 328 319 313 300 270 249 249 244 252 252 243 240 236 231 231
75 72 38 16 22 31 27 30 30 27 26 33 35 33 38 40 36 34 31 32 29 28 24 20 15 15 12 10 7 4 357 354 352 342 333 316 305 295 272 265 264 266 271 266 260 257 254 246 243
65 74 51 25 20 27 23 27 27 25 27 28 27 28 33 31 31 31 26 25 25 23 24 21 16 12 12 4 3 2 357 354 351 338 325 313 297 275 277 273 274 272 271 270 268 266 253 245 249
54 56 39 28 28 26 24 27 25 25 25 23 24 29 25 21 21 24 24 24 23 20 20 19 16 9 7 4 359 352 354 352 348 329 315 307 297 283 281 292 288 279 276 277 277 288 267 253 250
51 49 42 27 28 26 23 30 24 20 24 22 22 22 18 16 18 20 23 22 19 16 14 13 8 4 3 1 355 351 349 343 339 334 317 309 306 303 294 291 287 280 283 286 283 287 288 261 247
37 28 26 24 24 23 23 21 18 15 18 21 21 19 13 12 16 16 16 20 19 14 10 5 1 359 357 356 352 346 343 340 338 334 325 319 317 316 305 289 284 282 278 279 287 286 280 273 270
41 22 13 12 16 19 14 9 10 9 12 13 12 11 13 14 15 15 13 14 14 11 9 6 2 357 354 353 350 347 341 339 334 328 320 318 317 310 303 294 288 284 279 274 277 282 276 275 280
23 18 17 15 12 9 6 359 360 359 4 5 4 6 10 13 13 12 10 6 6 5 2 360 359 356 352 351 348 345 345 340 333 333 320 313 313 310 304 296 289 288 282 277 275 274 272 275 276
27 25 19 15 4 2 358 352 353 356 357 357 358 5 8 8 6 6 4 2 360 357 354 353 353 352 351 348 344 342 342 341 334 332 327 313 311 308 304 300 290 287 285 280 276 273 271 273 278
29 15 7 355 345 350 355 349 348 352 352 354 359 0 0 1 1 3 4 0 359 355 351 347 346 344 342 341 340 338 337 334 331 329 328 323 313 307 303 297 289 288 286 284 276 275 274 274 277
10 353 348 334 332 338 348 344 347 350 350 355 359 353 352 353 354 355 356 356 355 353 349 345 343 340 337 336 336 336 333 330 330 328 326 325 322 317 309 298 293 292 290 285 280 277 277 278 279
351 345 321 318 321 328 333 329 335 345 345 346 350 349 346 347 346 345 348 349 351 351 348 344 342 339 336 332 332 333 332 328 327 327 324 323 320 317 312 306 303 297 295 295 297 291 286 283 281
295 309 304 308 319 321 324 325 325 342 340 337 340 339 342 342 340 341 341 344 348 347 346 343 342 337 335 334 331 331 330 328 326 324 321 319 317 315 313 308 301 295 294 295 294 294 290 287 282
310 305 292 297 314 317 323 323 329 330 331 334 337 334 335 337 336 337 338 341 343 344 344 343 340 338 333 333 332 331 330 327 324 321 318 314 313 313 312 307 302 296 293 293 294 294 291 289 285
284 283 282 292 307 315 322 318 319 318 323 331 335 335 331 332 333 334 336 338 339 340 340 340 340 339 335 332 332 334 332 330 327 322 320 317 313 310 310 308 304 298 294 291 292 292 290 288 287
265 273 281 295 305 307 305 303 303 309 321 326 332 334 331 330 331 332 334 336 336 337 338 339 340 340 338 333 331 332 333 332 330 327 323 318 313 311 311 308 304 300 295 292 290 290 289 288 288
260 274 295 297 299 294 288 295 305 316 318 318 326 331 331 330 331 331 333 335 335 336 337 337 337 338 337 331 329 329 328 328 328 329 328 322 318 315 314 311 307 304 299 295 290 288 288 288 288
276 288 298 293 286 281 293 300 300 303 304 313 320 324 326 327 329 328 330 333 334 334 333 335 335 334 334 333 332 330 329 328 328 329 329 324 321 319 316 312 309 307 304 296 291 287 287 287 288
268 280 294 296 294 297 297 289 289 297 301 308 314 316 321 323 323 324 327 329 331 332 332 332 331 330 329 327 327 328 329 329 330 329 328 326 323 321 317 310 306 305 304 299 292 289 288 288 287
256 264 279 286 290 299 295 280 287 303 305 308 311 312 313 318 319 320 322 325 327 328 329 329 328 328 327 327 328 327 326 326 327 328 327 327 325 324 320 315 311 309 305 303 298 292 291 290 288
254 258 274 279 286 293 285 285 298 304 308 313 312 312 310 314 319 317 319 321 323 325 326 326 325 324 323 322 324 326 323 323 323 324 325 324 322 320 320 317 314 312 310 308 304 298 296 295 291
259 264 264 273 285 291 287 286 294 300 304 307 309 311 309 312 313 315 317 317 319 321 322 323 322 321 321 320 321 323 322 320 321 322 323 322 321 319 318 317 315 312 309 307 304 300 298 297 298
257 262 258 261 262 275 288 284 287 292 298 303 305 305 307 308 308 311 312 312 314 315 317 318 318 318 319 318 319 321 322 321 320 319 321 322 322 321 320 317 315 313 310 310 308 306 298 297 297
254 251 259 267 273 272 275 280 285 290 294 296 300 303 303 302 303 306 307 308 312 313 314 315 315 316 318 318 317 318 318 320 320 318 317 319 321 322 321 317 313 311 309 308 307 305 303 298 297